Showing default

NOAA 17, 27453

Orbit data source: Space-Track

NOAA 17, 27453 is a payload satellite owned by NOAA (US) in SSO that was launched on Mon, 24 Jun 2002 UTC via a TITAN II SLV launch vehicle from the Air Force Western Test Range (AFWTR). Payload-class satellites include a variety of spacecraft equipped with specific instruments for various scientific and technological missions. These include communications satellites like Starlink; space stations such as the ISS; scientific satellites like the Hubble; Earth observation satellites from companies like Planet Labs, Umbra, and HawkEye 360; GPS; miniature CubeSats for education and research; and military/defense satellites.

Loading next visibility...
Identifier
27453, 2002-032A
Orbit
SSO
Country
Flag of USUS
Related business
Manufacturer
LM/EW
Mission
Non-operational Civil Weather
Bus & Motor
ATN, Unknown motor
Mass
2,231 kg wet, 1,403 kg dry
Launch date (UTC)
2002-06-24 (24 years ago)
Launch vehicle
TITAN II SLV
Launch site
Air Force Western Test Range (AFWTR)
Object type
Payload
Rocket body
Debris
Shape & HBR
Box + 1 Pan, 2.5 m
Radar Cross Section
11.218 m², Large (>1 m²)

Expand to show TLE details & history
Last TLE update: 2 days ago

TLE from 2 days ago
0 NOAA 17
1 27453U 02032A   26171.45319381  .00000110  00000-0  64777-4 0  9996
2 27453  98.8652 137.2690 0011416 348.1332  11.9577 14.26238080247452
Epoch: 2026-06-20T10:52Z
TLE epoch observation values (Epoch: 2026-06-20T10:52:35.945Z)
Latitude
0.00002°
Longitude
65.45163°
Altitude
799.228 km
Speed
7.458 km/s
True Right ascension
09h 09m 04s
True Declination
0° 00' 00"
Sunlit
Object was in daylight at epoch
Visualization orbit readout
Latitude
Unknown
Longitude
Unknown
Altitude
Unknown
Speed
Unknown
Apparent Right ascension
Unknown
Apparent Declination
Unknown
Sunlit
N/A
Visualization observer readout
Local Sidereal Time
01:59:15
Azimuth
Unknown
Elevation
Unknown
Doppler factor
Unknown
Orbital elements
Apogee altitude
809.687 km
Perigee altitude
793.295 km
Semi-major axis
7,179.628 km
Eccentricity
0.00114
Inclination
98.8652°
RAAN
137.269°
Arg. of periapsis
348.1332°
True anomaly
11.98484°
Mean anomaly
11.9577°
Eccentric anomaly
11.97127°
Mean motion
3.56772 °/min
Orbital period
100.9 mins
BSTAR
0.000064777
Loading maneuver chart data...
Computing Atmospheric mass density...

Documentation

Showing up to 5 results
|